Weather History for Beaumont, TX

Change the Weather History Date:

Sunday, March 16, 2014

  Actual Average Record
Temperature  
Mean Temperature 58 °F 62 °F  
Max Temperature 70 °F 72 °F 89 °F (1945)
Min Temperature 46 °F 52 °F 32 °F (1962)
Degree Days  
Heating Degree Days 7 5  
Month to date heating degree days 151 95  
Since 1 July heating degree days 1620 1308  
Cooling Degree Days 0 2  
Month to date cooling degree days 8 21  
Year to date cooling degree days 32 47  
Growing Degree Days 9 (Base 50)    
Moisture  
Dew Point 59 °F    
Average Humidity 83    
Maximum Humidity 100    
Minimum Humidity 66    
Precipitation  
Precipitation 0.48 in 0.11 in 1.95 in (1944)
Month to date precipitation 1.53 1.84  
Year to date precipitation 8.25 10.68  
Snow  
Snow 0.00 in 0.00 in T in (1923)
Month to date snowfall 0.0 0.0  
Since 1 July snowfall 0.3 T  
Snow Depth 0.00 in    
Sea Level Pressure  
Sea Level Pressure 29.76 in    
Wind  
Wind Speed 15 mph (West)    
Max Wind Speed 26 mph    
Max Gust Speed 35 mph    
Visibility 6 miles    
Events Rain , Thunderstorm    
T = Trace of Precipitation, MM = Missing Value Source: NWS Daily Summary

Daily Weather History Graph

Daily Weather History Graph

Search for Another Location

Airport:

Trip Planner

Search our weather history database for the weather conditions in past years. The results will help you decide how hot, cold, wet, or windy it might be!

Date:

Astronomy

Mar. 16, 2014 Rise Set
Actual Time 7:24 AM CDT 7:25 PM CDT
Civil Twilight 7:00 AM CDT 7:48 PM CDT
Nautical Twilight 6:33 AM CDT 8:16 PM CDT
Astronomical Twilight 6:05 AM CDT 8:44 PM CDT
Moon 7:39 PM CDT (3/16) 7:10 AM CDT (3/16)
Length of Visible Light 12h 48m
Length of Day
12h 00m
Full, 100% of the Moon is Illuminated
Mar 16
Full
Mar 16
Full
Mar 23
Last Quarter
Mar 30
New
Apr 7
First Quarter

Hourly Weather History & Observations

Time (CDT) Temp. Dew Point Humidity Pressure Visibility Wind Dir Wind Speed Gust Speed Precip Events Conditions
12:04 AM 66.9 °F 66.0 °F 97% 29.76 in 2.5 mi SSW 11.5 mph 21.9 mph N/A   Overcast
12:21 AM 66.9 °F 66.0 °F 97% 29.76 in 1.5 mi SW 8.1 mph - N/A   Overcast
12:53 AM 66.9 °F 66.0 °F 97% 29.75 in 1.5 mi WSW 10.4 mph - N/A   Overcast
1:10 AM 66.9 °F 66.0 °F 97% 29.75 in 2.0 mi SW 9.2 mph - 0.00 in Rain Light Rain
1:29 AM 68.0 °F 66.0 °F 93% 29.74 in 3.0 mi SW 9.2 mph - 0.00 in Rain Light Rain
1:53 AM 68.0 °F 66.0 °F 93% 29.74 in 4.0 mi SW 9.2 mph - 0.00 in   Overcast
2:53 AM 66.9 °F 66.0 °F 97% 29.73 in 3.0 mi SW 10.4 mph - N/A   Overcast
3:20 AM 66.9 °F 66.0 °F 97% 29.74 in 2.0 mi WSW 8.1 mph - N/A   Overcast
3:30 AM 66.9 °F 66.0 °F 97% 29.74 in 1.5 mi WSW 9.2 mph - N/A   Overcast
3:40 AM 66.9 °F 66.0 °F 97% 29.73 in 1.2 mi SW 9.2 mph - N/A   Overcast
3:53 AM 66.9 °F 66.0 °F 97% 29.73 in 1.0 mi SSW 8.1 mph - N/A   Mist
4:53 AM 66.9 °F 66.0 °F 97% 29.73 in 1.0 mi SW 6.9 mph - N/A   Mist
5:14 AM 66.9 °F 66.0 °F 97% 29.73 in 2.0 mi SW 6.9 mph - N/A   Overcast
5:26 AM 66.9 °F 66.0 °F 97% 29.73 in 4.0 mi SW 9.2 mph - N/A   Overcast
5:53 AM 68.0 °F 66.9 °F 96% 29.72 in 4.0 mi SW 8.1 mph - N/A   Overcast
6:53 AM 66.9 °F 66.0 °F 97% 29.70 in 0.8 mi SSW 6.9 mph - N/A   Mist
7:53 AM 68.0 °F 66.0 °F 93% 29.74 in 0.8 mi WSW 4.6 mph - N/A   Overcast
8:00 AM 68.0 °F 66.0 °F 93% 29.75 in 2.5 mi WSW 5.8 mph - N/A   Overcast
8:31 AM 68.0 °F 66.0 °F 93% 29.75 in 2.5 mi WNW 3.5 mph - 0.00 in Rain , Thunderstorm Light Thunderstorms and Rain
8:53 AM 64.9 °F 62.1 °F 90% 29.75 in 2.5 mi SW 8.1 mph - 0.32 in Rain , Thunderstorm Light Thunderstorms and Rain
8:57 AM 66.0 °F 62.1 °F 87% 29.76 in 5.0 mi West 5.8 mph - 0.01 in Rain Light Rain
9:08 AM 66.9 °F 63.0 °F 87% 29.77 in 8.0 mi SW 6.9 mph - 0.02 in Rain , Thunderstorm Light Thunderstorms and Rain
9:20 AM 68.0 °F 66.0 °F 93% 29.78 in 4.0 mi West 9.2 mph - 0.02 in Rain , Thunderstorm Light Thunderstorms and Rain
9:34 AM 66.0 °F 60.1 °F 81% 29.77 in 4.0 mi West 12.7 mph - 0.03 in Rain , Thunderstorm Light Rain
9:44 AM 64.9 °F 59.0 °F 81% 29.78 in 2.5 mi West 10.4 mph - 0.08 in Rain Heavy Rain
9:53 AM 66.0 °F 62.1 °F 87% 29.78 in 2.0 mi WNW 12.7 mph - 0.14 in Rain , Thunderstorm Heavy Rain
10:04 AM 68.0 °F 64.0 °F 87% 29.76 in 9.0 mi WNW 12.7 mph - 0.02 in Rain , Thunderstorm Light Rain
10:12 AM 68.0 °F 64.9 °F 90% 29.77 in 8.0 mi WNW 17.3 mph 26.5 mph 0.02 in   Scattered Clouds
10:53 AM 68.0 °F 61.0 °F 78% 29.78 in 10.0 mi NW 13.8 mph 23.0 mph 0.02 in   Clear
11:53 AM 64.0 °F 57.0 °F 78% 29.79 in 10.0 mi NNW 17.3 mph 26.5 mph 0.00 in   Mostly Cloudy
12:53 PM 66.0 °F 55.9 °F 70% 29.76 in 10.0 mi NNW 17.3 mph 25.3 mph 0.00 in   Clear
1:25 PM 66.0 °F 57.0 °F 73% 29.75 in 10.0 mi NW 19.6 mph 27.6 mph N/A   Overcast
1:53 PM 64.9 °F 55.9 °F 73% 29.75 in 10.0 mi NW 24.2 mph 31.1 mph N/A   Overcast
2:53 PM 66.0 °F 55.0 °F 68% 29.71 in 10.0 mi NNW 19.6 mph 27.6 mph N/A   Overcast
3:00 PM 66.0 °F 55.0 °F 68% 29.71 in 10.0 mi NW 20.7 mph 27.6 mph N/A   Scattered Clouds
3:53 PM 64.0 °F 53.1 °F 67% 29.70 in 10.0 mi NW 17.3 mph 29.9 mph N/A   Overcast
4:53 PM 63.0 °F 51.1 °F 65% 29.73 in 10.0 mi NW 21.9 mph 28.8 mph N/A   Overcast
4:55 PM 63.0 °F 51.1 °F 65% 29.73 in 10.0 mi NW 19.6 mph 28.8 mph N/A   Overcast
5:53 PM 57.9 °F 48.0 °F 70% 29.75 in 10.0 mi NNW 16.1 mph 28.8 mph N/A   Overcast
6:00 PM 57.9 °F 46.9 °F 67% 29.75 in 10.0 mi NNW 23.0 mph 29.9 mph N/A   Overcast
6:53 PM 55.9 °F 44.1 °F 64% 29.79 in 10.0 mi NNW 18.4 mph 32.2 mph N/A   Mostly Cloudy
7:53 PM 54.0 °F 43.0 °F 66% 29.83 in 10.0 mi NNW 20.7 mph 26.5 mph N/A   Mostly Cloudy
8:53 PM 51.1 °F 41.0 °F 68% 29.88 in 10.0 mi NNW 23.0 mph 34.5 mph N/A   Mostly Cloudy
9:53 PM 50.0 °F 39.9 °F 68% 29.92 in 10.0 mi NNW 18.4 mph 27.6 mph N/A   Overcast
10:53 PM 48.0 °F 39.0 °F 71% 29.94 in 10.0 mi NW 20.7 mph 33.4 mph N/A   Overcast
11:53 PM 46.9 °F 37.0 °F 68% 29.91 in 10.0 mi North 21.9 mph 32.2 mph N/A   Overcast